Change the Weather History Date:

Sunday, August 10, 2014

  Actual Average Record
Temperature  
Mean Temperature 76 °F 78 °F  
Max Temperature 85 °F 90 °F 102 °F (2010)
Min Temperature 67 °F 67 °F 57 °F (2012)
Degree Days  
Heating Degree Days 0 0  
Month to date heating degree days 0 0  
Since 1 June heating degree days 1 9  
Since 1 July heating degree days 1 1  
Cooling Degree Days 11 13  
Month to date cooling degree days 134 139  
Year to date cooling degree days 961 947  
Since 1 June cooling degree days 768 828  
Growing Degree Days 25 (Base 50)    
Moisture  
Dew Point 69 °F    
Average Humidity 77    
Maximum Humidity 93    
Minimum Humidity 61    
Precipitation  
Precipitation 0.43 in 0.13 in 1.02 in (2001)
Month to date precipitation 3.74 1.01  
Year to date precipitation 22.36 24.54  
Sea Level Pressure  
Sea Level Pressure 30.00 in    
Wind  
Wind Speed 5 mph (North)    
Max Wind Speed 17 mph    
Max Gust Speed 21 mph    
Visibility 8 miles    
Events Rain    
T = Trace of Precipitation, MM = Missing Value Source: NWS Daily Summary

Daily Weather History Graph

Daily Weather History Graph

Search for Another Location

Airport or City:

Trip Planner

Search our weather history database for the weather conditions in past years. The results will help you decide how hot, cold, wet, or windy it might be!

Date:

Astronomy

Aug. 10, 2014 Rise Set
Actual Time 6:29 AM CDT 8:22 PM CDT
Civil Twilight 6:00 AM CDT 8:50 PM CDT
Nautical Twilight 5:25 AM CDT 9:25 PM CDT
Astronomical Twilight 4:47 AM CDT 10:03 PM CDT
Moon 8:10 PM CDT (8/10) 6:22 AM CDT (8/10)
Length of Visible Light 14h 50m
Length of Day
13h 52m
Full, 100% of the Moon is Illuminated
Aug 10
Full
Aug 10
Full
Aug 17
Last Quarter
Aug 25
New
Sep 2
First Quarter

Hourly Weather History & Observations

Time (CDT) Temp. Heat Index Dew Point Humidity Pressure Visibility Wind Dir Wind Speed Gust Speed Precip Events Conditions
12:52 AM 72.0 °F - 69.1 °F 91% 29.98 in 8.0 mi Calm Calm - N/A   Clear
1:52 AM 73.9 °F - 70.0 °F 87% 29.98 in 9.0 mi East 4.6 mph - N/A   Overcast
2:25 AM 73.9 °F - 70.0 °F 87% 30.00 in 8.0 mi East 3.5 mph - N/A   Overcast
2:35 AM 73.9 °F - 70.0 °F 87% 30.00 in 8.0 mi East 3.5 mph - N/A   Overcast
2:52 AM 73.0 °F - 70.0 °F 90% 29.96 in 8.0 mi ESE 4.6 mph - N/A   Mostly Cloudy
3:52 AM 73.0 °F - 70.0 °F 90% 29.98 in 8.0 mi WNW 10.4 mph - 0.00 in Rain Light Rain
4:14 AM 73.9 °F - 71.1 °F 91% 30.01 in 7.0 mi NW 10.4 mph - 0.03 in Rain Light Rain
4:27 AM 73.0 °F - 69.1 °F 87% 30.03 in 2.0 mi West 12.7 mph - 0.14 in Rain Rain
4:34 AM 73.0 °F - 68.0 °F 84% 30.01 in 2.5 mi NW 13.8 mph - 0.19 in Rain Rain
4:48 AM 73.4 °F - 68.0 °F 83% 30.01 in 4.0 mi NNW 9.2 mph - 0.25 in Rain Light Rain
4:52 AM 73.0 °F - 68.0 °F 84% 29.99 in 4.0 mi North 6.9 mph - 0.27 in Rain Rain
5:52 AM 75.0 °F - 68.0 °F 79% 29.98 in 7.0 mi Calm Calm - 0.10 in Rain Light Rain
6:52 AM 73.0 °F - 68.0 °F 84% 29.94 in 10.0 mi East 8.1 mph - 0.03 in   Partly Cloudy
7:52 AM 73.9 °F - 68.0 °F 82% 29.94 in 10.0 mi East 4.6 mph - N/A   Overcast
9:52 AM 73.9 °F - 69.1 °F 85% 30.01 in 10.0 mi West 8.1 mph - N/A   Mostly Cloudy
10:52 AM 78.1 °F - 69.1 °F 74% 30.01 in 10.0 mi WNW 4.6 mph - N/A   Mostly Cloudy
11:52 AM 77.0 °F - 69.1 °F 76% 30.01 in 10.0 mi ESE 3.5 mph - N/A   Overcast
12:52 PM 81.0 °F 84.1 °F 69.1 °F 67% 30.00 in 10.0 mi ESE 3.5 mph - N/A   Scattered Clouds
1:17 PM 81.0 °F 84.1 °F 69.1 °F 67% 30.02 in 10.0 mi SSE 6.9 mph - N/A   Mostly Cloudy
1:25 PM 81.0 °F 84.4 °F 70.0 °F 69% 30.02 in 10.0 mi East 4.6 mph - N/A   Overcast
1:52 PM 84.0 °F 87.8 °F 69.1 °F 61% 29.99 in 10.0 mi Calm Calm - N/A   Mostly Cloudy
3:52 PM 80.1 °F 83.2 °F 70.0 °F 71% 29.99 in 10.0 mi NE 15.0 mph - N/A   Mostly Cloudy
4:14 PM 73.9 °F - 69.1 °F 85% 30.02 in 6.0 mi North 12.7 mph - 0.01 in Rain Light Rain
4:28 PM 73.9 °F - 70.0 °F 87% 30.03 in 3.0 mi North 11.5 mph - 0.03 in Rain Light Rain
4:37 PM 73.9 °F - 70.0 °F 87% 30.03 in 4.0 mi North 6.9 mph - 0.03 in Rain Light Rain
4:48 PM 73.4 °F - 69.8 °F 88% 30.03 in 10.0 mi North 10.4 mph - 0.03 in   Overcast
4:52 PM 73.0 °F - 68.0 °F 84% 30.01 in 10.0 mi North 9.2 mph - 0.03 in   Overcast
5:52 PM 79.0 °F - 70.0 °F 74% 29.98 in 10.0 mi ENE 8.1 mph - N/A   Overcast
7:52 PM 75.0 °F - 69.1 °F 82% 29.99 in 10.0 mi North 3.5 mph - N/A   Clear
8:52 PM 71.1 °F - 66.9 °F 87% 30.00 in 10.0 mi NW 3.5 mph - N/A   Clear
9:52 PM 70.0 °F - 66.9 °F 90% 30.02 in 9.0 mi NW 4.6 mph - N/A   Partly Cloudy
11:43 PM 68.0 °F - 64.9 °F 90% 30.05 in 1.8 mi NNW 4.6 mph - N/A   Clear
11:52 PM 66.9 °F - 64.9 °F 93% 30.04 in 1.8 mi NW 5.8 mph - N/A   Clear
11:55 PM 66.9 °F - 64.9 °F 93% 30.05 in 3.0 mi NW 5.8 mph - N/A   Clear